International Virtual Aviation Organisation

Russian Federation and Kazakhstan MCD

 

Карточка аэропорта UUYY

Внимание!
Информация на этой странице в стадии наполнения.
Если вы не увидели какой-то информации, или заметили неточность - пожалуйста сообщите нам!
Спасибо!
Команда RU-STAFF
Название аэропортаСыктывкар
Название аэропорта (англ.)Syktyvkar
Превышение341 ft. (103.9 m.)
Координаты61°38.502', 50°50.298'
Высота перехода700
Эшелон переходаQFE>760: FL40; 760>QFE>733: FL50; 733 >QFE :FL60;
Коды ответчика3130-3134, 5752-5757, 5770-5777, 6701-6717
Зона ОрВДСыктывкар РПИ (UUYY)
Данные METARUUYY 170900Z 17009MPS 2800 -SHSN BLSN BKN013CB M03/M04 Q1001 R18/19//51 TEMPO 0500 +SHSN RMK QFE742/0990
Проноз погоды (TAF)UUYY 170800Z 1709/1809 18009G14MPS 2000 SHSN BLSN BKN007 BKN015CB TEMPO 1709/1721 20019MPS 0500 +SHSN +FZRA BKN003 BKN012CB FM172100 23006G12MPS 4000 -SHSN BKN011 BKN015CB TEMPO 1721/1809 25006G15MPS 2100 -SHSN BKN005 BKN012CB
NOTAMshow/hide NOTAM
AWOS   TABLE

Информация о ВПП

ВПП Длина ВПП (м.) Покрытие Курс ВПП Частота ILS
012500Асфальтобетон6108.3
192500Асфальтобетон186111.7

Диспетчерские позиции

Позывной Наименование органа УВД Частота
UUYY_TWRСивкар-Старт124.600
UUYY_R_APPСивкар-Круг124.600



Спутниковое изображение